Weather History for Elefsis, Greece

Change the Weather History Date:

Sunday, April 21, 2013

  Actual Average Record
Temperature  
Mean Temperature 60 °F -  
Max Temperature 73 °F 74 °F 78 °F (2008)
Min Temperature 48 °F 55 °F 46 °F (2003)
Degree Days  
Heating Degree Days 4    
Growing Degree Days 10 (Base 50)    
Moisture  
Dew Point 37 °F    
Average Humidity 41    
Maximum Humidity 66    
Minimum Humidity 22    
Precipitation  
Precipitation 0.00 in - - ()
Sea Level Pressure  
Sea Level Pressure 30.00 in    
Wind  
Wind Speed 4 mph ()    
Max Wind Speed 15 mph    
Max Gust Speed 25 mph    
Visibility 6.2 miles    
Events      
Averages and records for this station are not official NWS values.
T = Trace of Precipitation, MM = Missing Value Source: Averaged Metar Reports

Daily Weather History Graph

Daily Weather History Graph

Search for Another Location

Airport:

Trip Planner

Search our weather history database for the weather conditions in past years. The results will help you decide how hot, cold, wet, or windy it might be!

Date:

Astronomy

Apr. 21, 2013 Rise Set
Actual Time 6:42 AM EEST 8:07 PM EEST
Civil Twilight 6:14 AM EEST 8:35 PM EEST
Nautical Twilight 5:41 AM EEST 9:08 PM EEST
Astronomical Twilight 5:06 AM EEST 9:43 PM EEST
Moon 3:37 PM EEST (4/21) 3:49 AM EEST (4/21)
Length of Visible Light 14h 20m
Length of Day
13h 25m
Waxing Gibbous, 77% of the Moon is Illuminated
Apr 21
Waxing Gibbous
Apr 25
Full
May 2
Last Quarter
May 10
New
May 18
First Quarter

Hourly Weather History & Observations

Time (EEST) Temp. Dew Point Humidity Pressure Visibility Wind Dir Wind Speed Gust Speed Precip Events Conditions
12:50 AM 51.8 °F 35.6 °F 54% 30.04 in 6.2 mi NNW 3.5 mph - N/A   Partly Cloudy
1:50 AM 48.2 °F 37.4 °F 66% 30.04 in 6.2 mi Calm Calm - N/A   Partly Cloudy
2:50 AM 48.2 °F 37.4 °F 66% 30.04 in 6.2 mi Calm Calm - N/A   Partly Cloudy
3:50 AM 48.2 °F 37.4 °F 66% 30.01 in 6.2 mi Calm Calm - N/A   Partly Cloudy
5:50 AM 48.2 °F 37.4 °F 66% 30.01 in 6.2 mi Calm Calm - N/A   Partly Cloudy
6:20 AM 48.2 °F 37.4 °F 66% 30.01 in 6.2 mi Calm Calm - N/A   Partly Cloudy
6:50 AM 48.2 °F 37.4 °F 66% 30.01 in 6.2 mi North 6.9 mph - N/A   Partly Cloudy
7:20 AM 51.8 °F 39.2 °F 62% 30.01 in 6.2 mi North 6.9 mph - N/A   Partly Cloudy
7:50 AM 55.4 °F 39.2 °F 54% 30.01 in 6.2 mi Calm Calm - N/A   Partly Cloudy
8:20 AM 59.0 °F 41.0 °F 51% 30.01 in 6.2 mi Calm Calm - N/A   Partly Cloudy
8:50 AM 60.8 °F 39.2 °F 45% 30.01 in - Calm Calm - N/A   Clear
9:20 AM 64.4 °F 39.2 °F 40% 30.01 in - Calm Calm - N/A   Clear
9:50 AM 66.2 °F 37.4 °F 35% 30.01 in - NNW 4.6 mph - N/A   Clear
10:20 AM 68.0 °F 35.6 °F 30% 30.01 in - North 4.6 mph - N/A   Clear
10:50 AM 69.8 °F 35.6 °F 28% 30.01 in 6.2 mi North 6.9 mph - N/A   Partly Cloudy
11:20 AM 69.8 °F 35.6 °F 28% 30.01 in 6.2 mi North 9.2 mph - N/A   Partly Cloudy
11:50 AM 69.8 °F 35.6 °F 28% 30.01 in 6.2 mi NNW 11.5 mph - N/A   Partly Cloudy
12:20 PM 69.8 °F 35.6 °F 28% 30.01 in 6.2 mi NNW 15.0 mph - N/A   Partly Cloudy
12:50 PM 69.8 °F 35.6 °F 28% 30.01 in 6.2 mi NW 12.7 mph - N/A   Scattered Clouds
1:20 PM 71.6 °F 35.6 °F 27% 30.01 in 6.2 mi NNW 11.5 mph 23.0 mph N/A   Scattered Clouds
1:50 PM 71.6 °F 33.8 °F 25% 30.01 in 6.2 mi North 11.5 mph 23.0 mph N/A   Scattered Clouds
2:20 PM 73.4 °F 33.8 °F 23% 29.98 in 6.2 mi North 15.0 mph - N/A   Scattered Clouds
2:50 PM 73.4 °F 33.8 °F 23% 29.98 in 6.2 mi North 11.5 mph 25.3 mph N/A   Scattered Clouds
3:20 PM 73.4 °F 32.0 °F 22% 29.98 in 6.2 mi West 11.5 mph - N/A   Scattered Clouds
3:50 PM 73.4 °F 32.0 °F 22% 29.95 in 6.2 mi NNE 9.2 mph - N/A   Scattered Clouds
4:20 PM 73.4 °F 32.0 °F 22% 29.95 in 6.2 mi North 6.9 mph - N/A   Scattered Clouds
4:50 PM 73.4 °F 32.0 °F 22% 29.95 in 6.2 mi North 6.9 mph - N/A   Scattered Clouds
5:20 PM 73.4 °F 33.8 °F 23% 29.95 in 6.2 mi North 4.6 mph - N/A   Scattered Clouds
5:50 PM 73.4 °F 33.8 °F 23% 29.95 in 6.2 mi NNW 5.8 mph - N/A   Partly Cloudy
6:20 PM 73.4 °F 33.8 °F 23% 29.95 in 6.2 mi North 6.9 mph - N/A   Partly Cloudy
6:50 PM 71.6 °F 32.0 °F 23% 29.95 in 6.2 mi North 4.6 mph - N/A   Partly Cloudy
7:50 PM 68.0 °F 42.8 °F 40% 29.95 in 6.2 mi Calm Calm - N/A   Partly Cloudy
8:20 PM 64.4 °F 44.6 °F 49% 29.95 in 6.2 mi SSW 3.5 mph - N/A   Partly Cloudy
8:50 PM 60.8 °F 44.6 °F 55% 29.98 in 6.2 mi South 4.6 mph - N/A   Partly Cloudy
9:20 PM 60.8 °F 44.6 °F 55% 29.98 in 6.2 mi Calm Calm - N/A   Partly Cloudy
9:50 PM 57.2 °F 42.8 °F 59% 30.01 in - Calm Calm - N/A   Clear
10:20 PM 57.2 °F 39.2 °F 51% 30.01 in - Calm Calm - N/A   Clear
10:50 PM 55.4 °F 37.4 °F 51% 30.01 in - Calm Calm - N/A   Clear
11:20 PM 55.4 °F 35.6 °F 47% 30.01 in - Calm Calm - N/A   Clear
11:50 PM 55.4 °F 37.4 °F 51% 30.01 in - Calm Calm - N/A   Clear